When you browse on this site, cookies collect data to enhance your experience and personalize the content and advertising you see.
Visit our Privacy Policy to learn more. By continuing to use the site, you agree to this use of cookies and data.
  • en Suisse
  • Liste des pays
  • À 7 jours
  • Température de l'eau
  • Carte météo
  • Widgets météo
  • user-avatar
    Se connecter

    Météo par heure à Limoges

    Ce jour, 14 Novembre, Jeudi

    Heure Température Précipitation Vent Pression Humidité
    00:00 +3°C° 0 mm 5 m/s 719 mmHg 91%
    01:00 +4°C° 2.7 mm 4 m/s 718 mmHg 93%
    02:00 +4°C° 2.7 mm 3 m/s 718 mmHg 95%
    03:00 +5°C° 2.7 mm 2 m/s 718 mmHg 97%
    04:00 +4°C° 0.3 mm 2 m/s 718 mmHg 96%
    05:00 +4°C° 0.3 mm 2 m/s 719 mmHg 96%
    06:00 +3°C° 0 mm 3 m/s 719 mmHg 96%
    07:00 +3°C° 0.1 mm 3 m/s 719 mmHg 95%
    08:00 +4°C° 0.1 mm 3 m/s 719 mmHg 94%
    09:00 +4°C° 0.1 mm 3 m/s 720 mmHg 93%
    10:00 +5°C° 0.1 mm 3 m/s 719 mmHg 89%
    11:00 +6°C° 0.1 mm 2 m/s 719 mmHg 85%
    12:00 +7°C° 0.1 mm 2 m/s 719 mmHg 81%
    13:00 +7°C° 0.2 mm 2 m/s 719 mmHg 83%
    14:00 +8°C° 0.2 mm 1 m/s 718 mmHg 85%
    15:00 +7°C° 0.2 mm 1 m/s 718 mmHg 88%
    16:00 +6°C° 0.1 mm 1 m/s 718 mmHg 91%
    17:00 +5°C° 0.1 mm 1 m/s 718 mmHg 94%
    18:00 +4°C° 0.1 mm 1 m/s 718 mmHg 97%
    19:00 +3°C° 0 mm 1 m/s 718 mmHg 97%
    20:00 +2°C° 0 mm 0 m/s 718 mmHg 97%
    21:00 +2°C° 0 mm 0 m/s 718 mmHg 97%
    22:00 +1°C° 0 mm 0 m/s 718 mmHg 96%
    23:00 +1°C° 0 mm 0 m/s 718 mmHg 96%

    Demain, 15 Novembre, Vendredi

    Heure Température Précipitation Vent Pression Humidité
    00:00 +1°C° 0 mm 0 m/s 718 mmHg 96%
    01:00 +1°C° 0 mm 0 m/s 718 mmHg 96%
    02:00 +1°C° 0 mm 0 m/s 718 mmHg 96%
    03:00 +1°C° 0 mm 0 m/s 718 mmHg 96%
    04:00 +1°C° 0 mm 0 m/s 718 mmHg 96%
    05:00 +1°C° 0 mm 0 m/s 718 mmHg 96%
    06:00 +1°C° 0 mm 0 m/s 719 mmHg 96%
    07:00 +2°C° 0 mm 0 m/s 719 mmHg 95%
    08:00 +3°C° 0 mm 0 m/s 720 mmHg 93%
    09:00 +3°C° 0 mm 0 m/s 721 mmHg 92%
    10:00 +4°C° 0 mm 0 m/s 721 mmHg 88%
    11:00 +6°C° 0 mm 1 m/s 721 mmHg 85%
    12:00 +7°C° 0 mm 1 m/s 721 mmHg 81%
    13:00 +7°C° 0 mm 1 m/s 721 mmHg 81%
    14:00 +7°C° 0 mm 1 m/s 721 mmHg 82%
    15:00 +7°C° 0 mm 1 m/s 721 mmHg 82%
    16:00 +6°C° 0 mm 1 m/s 721 mmHg 87%
    17:00 +4°C° 0 mm 1 m/s 722 mmHg 91%
    18:00 +2°C° 0 mm 0 m/s 722 mmHg 96%
    19:00 +1°C° 0 mm 0 m/s 722 mmHg 96%
    20:00 +1°C° 0 mm 0 m/s 723 mmHg 97%
    21:00 0°C° 0 mm 0 m/s 723 mmHg 98%
    22:00 +1°C° 0 mm 1 m/s 723 mmHg 98%
    23:00 +1°C° 0 mm 1 m/s 723 mmHg 98%

    Après-demain, 16 Novembre, Samedi

    Heure Température Précipitation Vent Pression Humidité
    00:00 +1°C° 0 mm 1 m/s 724 mmHg 98%
    01:00 +1°C° 0 mm 1 m/s 724 mmHg 97%
    02:00 -1°C° 0 mm 2 m/s 724 mmHg 97%
    03:00 -1°C° 0 mm 2 m/s 724 mmHg 97%
    04:00 0°C° 0 mm 3 m/s 724 mmHg 96%
    05:00 0°C° 0 mm 3 m/s 725 mmHg 95%
    06:00 0°C° 0 mm 4 m/s 725 mmHg 94%
    07:00 0°C° 0 mm 4 m/s 725 mmHg 92%
    08:00 +1°C° 0 mm 4 m/s 725 mmHg 90%
    09:00 +1°C° 0 mm 4 m/s 726 mmHg 88%
    10:00 +3°C° 0.1 mm 4 m/s 726 mmHg 86%
    11:00 +4°C° 0.1 mm 4 m/s 726 mmHg 84%
    12:00 +5°C° 0.1 mm 4 m/s 726 mmHg 82%
    13:00 +5°C° 0.2 mm 4 m/s 726 mmHg 83%
    14:00 +5°C° 0.2 mm 4 m/s 726 mmHg 85%
    15:00 +5°C° 0.2 mm 3 m/s 725 mmHg 86%
    16:00 +4°C° 0.9 mm 3 m/s 726 mmHg 89%
    17:00 +5°C° 0.9 mm 2 m/s 726 mmHg 93%
    18:00 +4°C° 0.9 mm 2 m/s 726 mmHg 97%
    19:00 +4°C° 0.2 mm 2 m/s 726 mmHg 97%
    20:00 +5°C° 0.2 mm 1 m/s 726 mmHg 98%
    21:00 +5°C° 0.2 mm 1 m/s 727 mmHg 98%
    22:00 +5°C° 0.1 mm 1 m/s 727 mmHg 98%
    23:00 +5°C° 0.1 mm 1 m/s 727 mmHg 98%

    17 Novembre, Dimanche

    Heure Température Précipitation Vent Pression Humidité
    00:00 +5°C° 0.1 mm 1 m/s 727 mmHg 98%
    01:00 +3°C° 0 mm 0 m/s 726 mmHg 98%
    02:00 +3°C° 0 mm 0 m/s 726 mmHg 98%
    03:00 +2°C° 0 mm 0 m/s 726 mmHg 98%
    04:00 +2°C° 0 mm 0 m/s 726 mmHg 98%
    05:00 +2°C° 0 mm 0 m/s 726 mmHg 98%
    06:00 +1°C° 0 mm 0 m/s 726 mmHg 98%
    07:00 +2°C° 0 mm 0 m/s 726 mmHg 96%
    08:00 +3°C° 0 mm 0 m/s 726 mmHg 95%
    09:00 +3°C° 0 mm 0 m/s 726 mmHg 93%
    10:00 +5°C° 0 mm 1 m/s 726 mmHg 90%
    11:00 +6°C° 0 mm 1 m/s 726 mmHg 87%
    12:00 +7°C° 0 mm 1 m/s 726 mmHg 84%
    13:00 +7°C° 0 mm 1 m/s 726 mmHg 83%
    14:00 +7°C° 0 mm 1 m/s 725 mmHg 83%
    15:00 +7°C° 0 mm 1 m/s 725 mmHg 82%
    16:00 +5°C° 0 mm 1 m/s 725 mmHg 86%
    17:00 +4°C° 0 mm 1 m/s 726 mmHg 91%
    18:00 +2°C° 0 mm 1 m/s 726 mmHg 96%
    19:00 +1°C° 0 mm 1 m/s 726 mmHg 96%
    20:00 0°C° 0 mm 0 m/s 726 mmHg 97%
    21:00 -1°C° 0 mm 0 m/s 727 mmHg 97%
    22:00 -1°C° 0 mm 0 m/s 727 mmHg 97%
    23:00 -1°C° 0 mm 0 m/s 727 mmHg 97%

    18 Novembre, Lundi

    Heure Température Précipitation Vent Pression Humidité
    00:00 -1°C° 0 mm 0 m/s 727 mmHg 96%
    01:00 -1°C° 0 mm 0 m/s 727 mmHg 96%
    02:00 -1°C° 0 mm 0 m/s 727 mmHg 96%
    03:00 -1°C° 0 mm 0 m/s 727 mmHg 96%
    04:00 -1°C° 0 mm 0 m/s 727 mmHg 96%
    05:00 -1°C° 0 mm 0 m/s 728 mmHg 95%
    06:00 -1°C° 0 mm 0 m/s 728 mmHg 95%
    07:00 0°C° 0 mm 0 m/s 728 mmHg 91%
    08:00 +1°C° 0 mm 0 m/s 729 mmHg 87%
    09:00 +2°C° 0 mm 0 m/s 729 mmHg 83%
    10:00 +4°C° 0 mm 0 m/s 729 mmHg 75%
    11:00 +6°C° 0 mm 1 m/s 729 mmHg 68%
    12:00 +8°C° 0 mm 1 m/s 729 mmHg 60%
    13:00 +8°C° 0 mm 1 m/s 729 mmHg 62%
    14:00 +7°C° 0 mm 1 m/s 729 mmHg 64%
    15:00 +7°C° 0 mm 1 m/s 729 mmHg 66%
    16:00 +5°C° 0 mm 1 m/s 729 mmHg 76%
    17:00 +3°C° 0 mm 1 m/s 730 mmHg 85%
    18:00 0°C° 0 mm 0 m/s 730 mmHg 95%
    19:00 +1°C° 0 mm 1 m/s 730 mmHg 95%
    20:00 +1°C° 0 mm 1 m/s 730 mmHg 96%
    21:00 +1°C° 0 mm 1 m/s 731 mmHg 97%
    22:00 +1°C° 0 mm 1 m/s 731 mmHg 97%
    23:00 0°C° 0 mm 1 m/s 731 mmHg 97%

    19 Novembre, Mardi

    Heure Température Précipitation Vent Pression Humidité
    00:00 0°C° 0 mm 1 m/s 731 mmHg 97%
    01:00 -1°C° 0 mm 2 m/s 731 mmHg 95%
    02:00 +1°C° 0 mm 2 m/s 731 mmHg 93%
    03:00 +1°C° 0 mm 2 m/s 731 mmHg 91%
    04:00 +1°C° 0 mm 2 m/s 731 mmHg 91%
    05:00 +2°C° 0 mm 2 m/s 731 mmHg 92%
    06:00 +2°C° 0 mm 2 m/s 731 mmHg 92%
    07:00 +2°C° 0 mm 2 m/s 731 mmHg 89%
    08:00 +3°C° 0 mm 2 m/s 731 mmHg 87%
    09:00 +3°C° 0 mm 3 m/s 731 mmHg 85%
    10:00 +4°C° 0 mm 3 m/s 731 mmHg 79%
    11:00 +7°C° 0 mm 3 m/s 730 mmHg 73%
    12:00 +8°C° 0 mm 3 m/s 730 mmHg 67%
    13:00 +8°C° 0 mm 3 m/s 729 mmHg 69%
    14:00 +8°C° 0 mm 2 m/s 729 mmHg 70%
    15:00 +7°C° 0 mm 2 m/s 729 mmHg 71%
    16:00 +6°C° 0 mm 2 m/s 728 mmHg 76%
    17:00 +5°C° 0 mm 2 m/s 728 mmHg 80%
    18:00 +4°C° 0 mm 2 m/s 728 mmHg 84%
    19:00 +4°C° 0 mm 2 m/s 728 mmHg 81%
    20:00 +4°C° 0 mm 2 m/s 728 mmHg 79%
    21:00 +4°C° 0 mm 3 m/s 728 mmHg 76%
    22:00 +4°C° 0 mm 3 m/s 728 mmHg 74%
    23:00 +4°C° 0 mm 3 m/s 727 mmHg 71%
    Voir plus